Regional Weather Roundup
Issued by NWS Midland/Odessa, TX

Skip options and go directly to product.
Home | Oldest Version | Previous Version | Current Version | All | Text Only | Save Text | Print | Product List | Glossary Off

Skip product version selection by date and time.   

342
ASUS44 KMAF 310802
RWRMAF
MIDLAND AREA WEATHER ROUNDUP
NATIONAL WEATHER SERVICE MIDLAND TX
300 AM CDT FRI OCT 31 2014

...IN SOUTHWEST TEXAS AND SOUTHEAST NEW MEXICO...

CITY           SKY/WX    TMP DP  RH WIND       PRES   REMARKS
ALPINE         MOCLDY    54  47  77 N3        30.37R
ANDREWS        FAIR      48  37  64 NE5       30.33R
ARTESIA        NOT AVBL
BIG SPRING     CLEAR     59  41  51 NE6       30.31R
CARLSBAD       CLEAR     54  46  74 N6        30.33R
DRYDEN           N/A     68  50  52 N13       30.15R
FORT STOCKTON  CLEAR     56  50  80 N6        30.26R
GUAD PASS      NOT AVBL
HOBBS          CLEAR     54  32  43 NE8       30.35R HAZE
MARFA          CLEAR     55  45  67 N13       30.32S
MIDLAND AIRPK  CLEAR     57  40  51 E3        30.31R
MIDLAND INTL   CLEAR     61  39  44 NE12      30.29R
ODESSA         CLEAR     59  38  45 NE12      30.30R
PECOS          CLEAR     57  50  78 NW5       30.28R
PRESIDIO       FAIR      69  40  35 N8        30.19R
SEMINOLE       CLEAR     50  34  54 NE7       30.34S
SNYDER         CLEAR     53  38  55 N7        30.31R
WINK           CLEAR     62  43  49 NE6       30.28R
$$
...OTHER STATIONS IN TEXAS...

CITY           SKY/WX    TMP DP  RH WIND       PRES   REMARKS
ABILENE        CLEAR     57  38  48 N3        30.27R
AMARILLO       CLEAR     45  30  55 N3        30.40R
AUSTIN         RAIN      62  59  90 N9        30.17R FOG
BROWNSVILLE    CLEAR     69  67  93 CALM      30.06F
CORPUS CHRISTI PTCLDY    69  68  96 SE3       30.06F
DALLAS FTW     CLEAR     58  45  62 NW12      30.18S
DEL RIO        CLEAR     68  59  73 NE6       30.09R
EL PASO        PTCLDY    62  38  40 NE5       30.26S
HOUSTON INT    MOCLDY    63  54  72 CALM      30.10F
LUBBOCK        CLEAR     43  32  65 N7        30.35R WCI  39
SAN ANGELO     PTCLDY    68  59  73 NE15      30.23R
SAN ANTONIO    DRIZZLE   70  62  76 NE6       30.12R
WACO           CLEAR     59  57  93 N5        30.17R
WICHITA FALLS  NOT AVBL
$$
...OTHER LOCATIONS IN NEW MEXICO...

CITY           SKY/WX    TMP DP  RH WIND       PRES   REMARKS
ALAMAGORDO     NOT AVBL
ALBUQUERQUE    CLEAR     56  24  29 E17       30.33S
CANNON AFB     CLEAR     45  28  53 NE8       30.39R
CLOVIS         CLEAR     43  27  52 NE9       30.40F WCI  37
HOLLOMAN AFB   CLEAR     49  32  52 E8        30.26R
ROSWELL        CLEAR     49  33  54 W5        30.36R
RUIDOSO        CLEAR     41  27  56 S6        30.47S WCI  37
SANTA FE       CLEAR     43  20  39 S5        30.41S
TRUTH OR CONSE PTCLDY    53  27  36 NW8       30.27F
TUCUMCARI      CLEAR     43  25  49 N10       30.39R WCI  37
$$

USA.gov is the U.S. government's official web portal to all federal, state and local government web resources and services.